Change the Weather History Date:

Thursday, February 6, 2014

  Actual Average Record
Temperature  
Mean Temperature -3 °F -  
Max Temperature 8 °F 31 °F 62 °F (2009)
Min Temperature -14 °F 11 °F -20 °F (1982)
Degree Days  
Heating Degree Days 68    
Moisture  
Dew Point -9 °F    
Average Humidity 72    
Maximum Humidity 84    
Minimum Humidity 57    
Precipitation  
Precipitation 0.00 in - - ()
Sea Level Pressure  
Sea Level Pressure 30.53 in    
Wind  
Wind Speed 6 mph (WSW)    
Max Wind Speed 12 mph    
Max Gust Speed -    
Visibility 10 miles    
Events      
Averages and records for this station are not official NWS values.
T = Trace of Precipitation, MM = Missing Value Source: NWS Daily Summary

Daily Weather History Graph

Daily Weather History Graph

Search for Another Location

Airport or City:

Trip Planner

Search our weather history database for the weather conditions in past years. The results will help you decide how hot, cold, wet, or windy it might be!

Date:

Astronomy

Feb. 06, 2014 Rise Set
Actual Time 7:26 AM CST 5:44 PM CST
Civil Twilight 6:57 AM CST 6:13 PM CST
Nautical Twilight 6:25 AM CST 6:45 PM CST
Astronomical Twilight 5:52 AM CST 7:17 PM CST
Moon 11:16 AM CST (2/6) 12:43 AM CST (2/6)
Length of Visible Light 11h 15m
Length of Day
10h 18m
Waxing Crescent, 49% of the Moon is Illuminated
Feb 6
Waxing Crescent
Feb 6
First Quarter
Feb 14
Full
Feb 22
Last Quarter
Mar 1
New

Hourly Weather History & Observations

Time (CST) Temp. Windchill Dew Point Humidity Pressure Visibility Wind Dir Wind Speed Gust Speed Precip Events Conditions
12:15 AM -5.8 °F -18.4 °F -11.2 °F 77% 30.62 in 10.0 mi WNW 5.8 mph - N/A   Clear
12:35 AM -7.6 °F -20.6 °F -11.2 °F 84% 30.62 in 10.0 mi WNW 5.8 mph - N/A   Clear
12:55 AM -5.8 °F -18.4 °F -11.2 °F 77% 30.62 in 10.0 mi WNW 5.8 mph - N/A   Clear
1:15 AM -5.8 °F -22.4 °F -9.4 °F 84% 30.61 in 10.0 mi NW 9.2 mph - N/A   Clear
1:35 AM -5.8 °F -22.4 °F -9.4 °F 84% 30.60 in 10.0 mi NW 9.2 mph - N/A   Clear
1:55 AM -5.8 °F -21.2 °F -11.2 °F 77% 30.61 in 10.0 mi WNW 8.1 mph - N/A   Clear
2:15 AM -5.8 °F -23.4 °F -9.4 °F 84% 30.60 in 10.0 mi NW 10.4 mph - N/A   Clear
2:35 AM -5.8 °F -22.4 °F -11.2 °F 77% 30.60 in 10.0 mi NW 9.2 mph - N/A   Clear
2:55 AM -5.8 °F -23.4 °F -11.2 °F 77% 30.59 in 10.0 mi NW 10.4 mph - N/A   Clear
3:15 AM -5.8 °F -18.4 °F -11.2 °F 77% 30.59 in 10.0 mi NW 5.8 mph - N/A   Clear
3:35 AM -5.8 °F -18.4 °F -11.2 °F 77% 30.59 in 10.0 mi NW 5.8 mph - N/A   Clear
3:55 AM -5.8 °F -19.9 °F -11.2 °F 77% 30.59 in 10.0 mi WNW 6.9 mph - N/A   Clear
4:15 AM -5.8 °F -18.4 °F -11.2 °F 77% 30.59 in 10.0 mi WNW 5.8 mph - N/A   Clear
4:35 AM -5.8 °F -22.4 °F -11.2 °F 77% 30.59 in 10.0 mi NW 9.2 mph - N/A   Clear
4:55 AM -5.8 °F -19.9 °F -11.2 °F 77% 30.59 in 10.0 mi WNW 6.9 mph - N/A   Clear
5:15 AM -5.8 °F -19.9 °F -11.2 °F 77% 30.59 in 10.0 mi WNW 6.9 mph - N/A   Clear
5:35 AM -5.8 °F -16.7 °F -13.0 °F 71% 30.59 in 10.0 mi WNW 4.6 mph - N/A   Clear
5:55 AM -7.6 °F -18.8 °F -13.0 °F 77% 30.59 in 10.0 mi West 4.6 mph - N/A   Clear
6:15 AM -11.2 °F -23.0 °F -16.6 °F 77% 30.60 in 10.0 mi South 4.6 mph - N/A   Partly Cloudy
6:35 AM -11.2 °F -20.6 °F -16.6 °F 77% 30.60 in 10.0 mi SSW 3.5 mph - N/A   Scattered Clouds
6:55 AM -13.0 °F - -18.4 °F 77% 30.60 in 10.0 mi Calm Calm - N/A   Partly Cloudy
7:15 AM -14.8 °F - -18.4 °F 84% 30.60 in 10.0 mi Calm Calm - N/A   Clear
7:35 AM -13.0 °F - -18.4 °F 77% 30.61 in 10.0 mi Calm Calm - N/A   Clear
7:55 AM -13.0 °F - -16.6 °F 84% 30.60 in 10.0 mi Calm Calm - N/A   Clear
8:15 AM -11.2 °F - -14.8 °F 84% 30.61 in 10.0 mi Calm Calm - N/A   Clear
8:35 AM -7.6 °F -20.6 °F -13.0 °F 77% 30.61 in 10.0 mi West 5.8 mph - N/A   Clear
8:55 AM -5.8 °F -18.4 °F -11.2 °F 77% 30.61 in 10.0 mi West 5.8 mph - N/A   Clear
9:15 AM -5.8 °F -22.4 °F -11.2 °F 77% 30.60 in 10.0 mi West 9.2 mph - N/A   Clear
9:35 AM -4.0 °F -17.8 °F -9.4 °F 78% 30.61 in - WNW 6.9 mph - N/A   Clear
9:55 AM -2.2 °F -16.8 °F -9.4 °F 71% 30.60 in 10.0 mi WNW 8.1 mph - N/A   Clear
10:15 AM -2.2 °F -18.9 °F -9.4 °F 71% 30.61 in 10.0 mi West 10.4 mph - N/A   Clear
10:35 AM -0.4 °F -13.4 °F -7.6 °F 72% 30.60 in 10.0 mi WNW 6.9 mph - N/A   Clear
11:35 AM 1.4 °F -8.3 °F -5.8 °F 72% 30.59 in 10.0 mi West 4.6 mph - N/A   Clear
11:55 AM 3.2 °F -6.2 °F -5.8 °F 66% 30.58 in 10.0 mi West 4.6 mph - N/A   Clear
12:15 PM 3.2 °F -7.8 °F -5.8 °F 66% 30.56 in 10.0 mi WSW 5.8 mph - N/A   Clear
12:35 PM 5.0 °F -5.6 °F -4.0 °F 66% 30.56 in 10.0 mi West 5.8 mph - N/A   Clear
12:55 PM 5.0 °F -5.6 °F -4.0 °F 66% 30.55 in 10.0 mi West 5.8 mph - N/A   Clear
1:15 PM 6.8 °F -3.5 °F -4.0 °F 61% 30.53 in 10.0 mi Variable 5.8 mph - N/A   Clear
1:35 PM 6.8 °F -4.8 °F -4.0 °F 61% 30.52 in 10.0 mi West 6.9 mph - N/A   Clear
1:55 PM 6.8 °F -5.9 °F -4.0 °F 61% 30.51 in 10.0 mi WSW 8.1 mph - N/A   Clear
2:15 PM 6.8 °F -5.9 °F -4.0 °F 61% 30.50 in 10.0 mi West 8.1 mph - N/A   Clear
2:35 PM 6.8 °F -4.8 °F -4.0 °F 61% 30.50 in 10.0 mi West 6.9 mph - N/A   Clear
2:55 PM 6.8 °F -6.9 °F -4.0 °F 61% 30.49 in 10.0 mi West 9.2 mph - N/A   Clear
3:15 PM 8.6 °F -3.7 °F -4.0 °F 57% 30.49 in 10.0 mi WSW 8.1 mph - N/A   Clear
3:35 PM 6.8 °F -6.9 °F -4.0 °F 61% 30.48 in 10.0 mi WSW 9.2 mph - N/A   Clear
3:55 PM 8.6 °F -5.5 °F -4.0 °F 57% 30.48 in 10.0 mi WSW 10.4 mph - N/A   Clear
4:15 PM 8.6 °F -6.3 °F -4.0 °F 57% 30.48 in 10.0 mi WSW 11.5 mph - N/A   Clear
4:35 PM 6.8 °F -6.9 °F -4.0 °F 61% 30.47 in 10.0 mi WSW 9.2 mph - N/A   Clear
4:55 PM 6.8 °F -5.9 °F -4.0 °F 61% 30.46 in 10.0 mi WSW 8.1 mph - N/A   Clear
5:15 PM 5.0 °F -5.6 °F -4.0 °F 66% 30.45 in 10.0 mi SW 5.8 mph - N/A   Mostly Cloudy
5:35 PM 3.2 °F -9.1 °F -4.0 °F 72% 30.45 in 10.0 mi SSW 6.9 mph - N/A   Scattered Clouds
5:55 PM 1.4 °F -8.3 °F -5.8 °F 72% 30.44 in 10.0 mi SW 4.6 mph - N/A   Scattered Clouds
6:15 PM 1.4 °F -8.3 °F -5.8 °F 72% 30.44 in 10.0 mi SW 4.6 mph - N/A   Mostly Cloudy
6:35 PM -0.4 °F -10.4 °F -7.6 °F 72% 30.44 in 10.0 mi SW 4.6 mph - N/A   Partly Cloudy
6:55 PM 1.4 °F -9.9 °F -7.6 °F 66% 30.44 in 10.0 mi SW 5.8 mph - N/A   Clear
7:15 PM -0.4 °F -13.4 °F -7.6 °F 72% 30.45 in 10.0 mi SW 6.9 mph - N/A   Clear
7:35 PM 1.4 °F -9.9 °F -7.6 °F 66% 30.45 in 10.0 mi SW 5.8 mph - N/A   Mostly Cloudy
7:55 PM -0.4 °F -12.0 °F -7.6 °F 72% 30.44 in 10.0 mi SW 5.8 mph - N/A   Mostly Cloudy
8:15 PM -0.4 °F -12.0 °F -7.6 °F 72% 30.45 in 10.0 mi SW 5.8 mph - N/A   Mostly Cloudy
8:35 PM -0.4 °F -14.7 °F -7.6 °F 72% 30.45 in 10.0 mi WSW 8.1 mph - N/A   Mostly Cloudy
8:55 PM 3.2 °F -9.1 °F -5.8 °F 66% 30.44 in 10.0 mi WSW 6.9 mph - N/A   Mostly Cloudy
9:15 PM 1.4 °F -9.9 °F -5.8 °F 72% 30.44 in 10.0 mi SW 5.8 mph - N/A   Overcast
9:35 PM -0.4 °F -12.0 °F -7.6 °F 72% 30.44 in 10.0 mi South 5.8 mph - N/A   Mostly Cloudy
9:55 PM -0.4 °F -10.4 °F -7.6 °F 72% 30.45 in 10.0 mi South 4.6 mph - N/A   Overcast
10:15 PM -2.2 °F -12.5 °F -7.6 °F 78% 30.45 in 10.0 mi SSW 4.6 mph - N/A   Mostly Cloudy
10:35 PM -0.4 °F -10.4 °F -7.6 °F 72% 30.44 in 10.0 mi SW 4.6 mph - N/A   Overcast
10:55 PM 1.4 °F -8.3 °F -5.8 °F 72% 30.43 in 10.0 mi SW 4.6 mph - N/A   Overcast
11:15 PM -0.4 °F -12.0 °F -7.6 °F 72% 30.43 in 10.0 mi South 5.8 mph - N/A   Overcast
11:35 PM -2.2 °F -14.2 °F -7.6 °F 78% 30.43 in 10.0 mi South 5.8 mph - N/A   Overcast
11:55 PM -2.2 °F -12.5 °F -9.4 °F 71% 30.42 in 10.0 mi SSW 4.6 mph - N/A   Mostly Cloudy